[[{"header":{"parameterUnit":"m.s-1","parameterCategory":2,"la1":30.2991,"la2":30.254,"lo1":-89.0895,"lo2":-89.0444,"dy":0.0017,"dx":0.0017,"nx":28,"ny":28,"refTime":"2025-06-10T03:00:00:Z","depth":"0","parameterNumber":2,"parameterNumberName":"U-component_of_CURRENTS"},"data":[0,0,0,0,0,0,0,0,0,0,0,0,0,0,0,0,0,0,0,0,0,0,0,0,0,0,0,0,0,0,0,0,0,0,0,0,0,0,0,0,0,0,0,0,0,0,0,0,0,0,0,0,0,0,0,0,0,0,-0.3588,-0.3588,0,-0.357,-0.357,-0.3569,-0.3491,-0.349,-0.3488,-0.3487,-0.3401,-0.34,-0.3399,0,0,0,0,0,0,0,0,0,0,0,0,0,-0.3527,-0.3529,-0.3588,-0.3588,-0.3588,-0.357,-0.357,-0.3569,-0.3491,-0.349,-0.3488,-0.3486,-0.3401,-0.34,-0.3399,0,0,0,0,0,0,0,0,0,0,0,0,0,-0.3533,-0.3529,-0.3588,-0.3549,-0.3546,-0.357,-0.357,-0.3569,-0.3492,-0.349,-0.3487,-0.3485,-0.3401,-0.34,-0.3399,-0.3437,0,0,-0.3395,-0.3394,0,0,0,0,0,0,0,0,-0.3533,-0.3535,-0.3555,-0.3552,-0.3548,-0.3533,-0.3517,-0.3522,-0.3492,-0.3509,-0.3487,-0.3484,-0.3442,-0.3438,-0.3436,-0.3433,-0.3429,-0.3395,-0.3394,-0.3393,-0.3393,0,0,0,0,0,0,0,-0.3533,-0.3535,-0.3577,-0.3555,-0.3551,-0.3524,-0.3522,-0.3518,-0.3485,-0.3507,-0.3503,-0.3506,-0.3439,-0.3437,-0.3433,-0.3428,-0.3395,-0.3393,-0.3393,-0.3392,-0.3315,-0.3314,0,0,0,0,0,0,-0.3546,-0.3536,-0.3578,-0.3577,-0.3538,-0.3527,-0.3525,-0.3538,-0.3486,-0.3478,-0.3508,-0.3503,-0.3441,-0.3435,-0.343,-0.3327,-0.3393,-0.3392,-0.3391,-0.3317,-0.3315,-0.3314,0,0,0,0,0,0,-0.3545,-0.355,-0.3579,-0.3557,-0.356,-0.3531,-0.3546,-0.3539,-0.3526,-0.3489,-0.3477,-0.3502,-0.3439,-0.3432,-0.3405,-0.3328,-0.3391,-0.339,-0.3318,-0.3316,-0.3315,-0.3215,0,0,0,0,0,0,-0.3543,-0.355,-0.3559,-0.3559,-0.3561,-0.3577,-0.3548,-0.354,-0.3534,-0.3526,-0.348,-0.347,-0.3436,-0.3407,-0.3404,-0.3328,-0.3389,-0.332,-0.3317,-0.3315,-0.3219,-0.3209,-0.3201,0,0,0,0,0,-0.3541,-0.3557,-0.356,-0.3564,-0.3576,-0.3577,-0.3575,-0.3545,-0.3536,-0.3526,-0.3494,-0.3471,-0.3388,-0.3407,-0.3402,-0.3324,-0.3321,-0.3318,-0.3315,-0.3224,-0.3211,-0.3201,0,0,0,0,0,0,-0.3534,-0.3551,-0.3553,-0.3574,-0.3572,-0.3564,-0.3557,-0.3553,-0.3525,-0.3514,-0.3478,-0.3466,-0.3406,-0.3404,-0.3425,-0.3298,-0.3342,-0.3339,-0.3274,-0.3262,-0.3253,-0.3232,-0.3388,0,0,0,0,0,-0.3543,-0.3553,-0.3567,-0.3578,-0.3582,-0.3576,-0.3574,-0.3561,-0.3543,-0.3528,-0.3495,-0.3453,-0.3398,-0.3363,-0.3335,-0.3287,-0.3256,-0.323,-0.3221,-0.3212,-0.3195,-0.3098,-0.3077,-0.3305,-0.3305,-0.3305,0,0,-0.3542,-0.3554,-0.3558,-0.3577,-0.3573,-0.3553,-0.3567,-0.3565,-0.3524,-0.3526,-0.3461,-0.3436,-0.3387,-0.3308,-0.3279,-0.3289,-0.3132,-0.3209,-0.3202,-0.3188,-0.3092,-0.307,-0.305,-0.3303,-0.3303,-0.3303,0,0,-0.3525,-0.3559,-0.3548,-0.3549,-0.3553,-0.3546,-0.3548,-0.3543,-0.3512,-0.3479,-0.344,-0.337,-0.333,-0.3236,-0.3192,-0.3126,-0.31,-0.3125,-0.3037,-0.2943,-0.2923,-0.2904,-0.283,-0.2806,-0.3102,-0.3102,-0.3102,0,-0.3517,-0.3501,-0.3544,-0.3528,-0.3506,-0.3539,-0.3499,-0.3488,-0.3466,-0.3419,-0.3444,-0.3312,-0.3271,-0.3119,-0.3081,-0.3093,-0.3063,-0.3076,-0.2926,-0.2908,-0.2891,-0.2819,-0.2793,-0.3097,-0.3097,-0.3098,-0.3098,0,-0.3473,-0.346,-0.3455,-0.3433,-0.3432,-0.3405,-0.3402,-0.3378,-0.3362,-0.3331,-0.3223,-0.3178,-0.3087,-0.305,-0.3041,-0.2882,-0.2908,-0.2937,-0.2947,-0.2861,-0.2792,-0.2767,-0.3089,-0.3091,-0.3093,-0.3094,0,0,-0.3412,-0.3418,-0.3403,-0.3367,-0.3368,-0.3351,-0.33,-0.323,-0.3166,-0.3142,-0.303,-0.2926,-0.2923,-0.2875,-0.2845,-0.2749,-0.2593,-0.279,-0.2787,-0.2701,-0.24,-0.2287,-0.225,-0.2604,-0.2599,-0.2595,-0.2398,0,-0.3331,-0.3271,-0.3298,-0.3215,-0.3169,-0.3188,-0.3131,-0.3089,-0.3056,-0.2972,-0.2903,-0.282,-0.2851,-0.2806,-0.2711,-0.2638,-0.2526,-0.2645,-0.2509,-0.2504,-0.2401,-0.2215,-0.2024,-0.182,-0.2374,-0.2369,-0.2366,0,-0.3228,-0.3201,-0.3115,-0.3068,-0.3052,-0.3024,-0.2926,-0.2893,-0.2812,-0.2788,-0.2712,-0.2701,-0.2559,-0.2619,-0.2421,-0.2508,-0.2437,-0.2381,-0.2373,-0.2282,-0.2342,-0.1998,-0.1754,-0.1847,-0.2328,-0.2331,-0.2334,0,-0.3087,-0.3048,-0.2966,-0.2951,-0.2927,-0.2884,-0.2871,-0.2814,-0.276,-0.2686,-0.2623,-0.2527,-0.2431,-0.2363,-0.2276,-0.2346,-0.2063,-0.2146,-0.1965,-0.1959,-0.1771,-0.1755,-0.1579,-0.1967,-0.1968,-0.1968,-0.1969,0,-0.2932,-0.286,-0.2902,-0.2847,-0.2761,-0.2794,-0.2694,-0.2677,-0.2621,-0.2489,-0.2531,-0.2354,-0.2359,-0.2221,-0.22,-0.1979,-0.1997,-0.1886,-0.1864,-0.1733,-0.1716,-0.1775,-0.187,-0.1961,-0.1963,-0.1964,-0.1965,0,-0.2743,-0.2769,-0.2694,-0.2689,-0.2689,-0.2634,-0.2619,-0.2539,-0.2522,-0.235,-0.2322,-0.2188,-0.197,-0.1972,-0.18,-0.1808,-0.163,-0.1595,-0.1452,-0.1414,-0.1355,-0.1452,-0.122,-0.1184,-0.1354,-0.135,-0.1346,0,-0.2612,-0.2559,-0.2585,-0.2555,-0.2549,-0.2504,-0.2456,-0.2477,-0.2387,-0.217,-0.2037,-0.1821,-0.1505,-0.1274,-0.1275,-0.1195,-0.1334,-0.1051,-0.1125,-0.1249,-0.1343,-0.1446,-0.1444,-0.0846,-0.0838,-0.0832,-0.0827,0,-0.236,-0.2409,-0.2376,-0.2344,-0.2312,-0.2261,-0.2197,-0.2122,-0.2058,-0.1873,-0.1489,-0.1214,-0.0938,-0.0634,-0.0631,-0.0663,-0.1039,-0.0917,-0.1049,-0.0894,-0.0983,-0.0974,-0.1137,-0.0771,-0.0777,-0.0781,-0.0784,-0.0786,-0.2176,-0.2134,-0.2126,-0.2079,-0.2062,-0.1957,-0.1809,-0.173,-0.1509,-0.1162,-0.1012,-0.0522,-0.0184,-0.0047,-0.0211,-0.0419,-0.0525,-0.0466,-0.0562,-0.065,-0.0622,-0.0668,-0.0293,-0.0295,-0.0298,-0.03,-0.0301,0,-0.1851,-0.1859,-0.1836,-0.1775,-0.1657,-0.1724,-0.1559,-0.135,-0.0996,-0.0742,-0.0368,0.0197,0.0474,0.0417,0.0277,0.0011,-0.0198,-0.0203,-0.0325,-0.0334,-0.0333,-0.0322,0.007,0.007,0.007,0.007,0.007,0.0071,-0.1663,-0.1542,-0.157,-0.1344,-0.1308,-0.1013,-0.0853,-0.0621,-0.0388,0.0125,0.0448,0.0622,0.0774,0.0638,0.0261,0.0068,-0.0171,-0.0173,-0.0363,-0.0434,-0.047,-0.0505,-0.0517,-0.0172,-0.0172,-0.0269,-0.027,-0.0271]},{"header":{"parameterUnit":"m.s-1","parameterCategory":2,"la1":30.2991,"la2":30.254,"lo1":-89.0895,"lo2":-89.0444,"dy":0.0017,"dx":0.0017,"nx":28,"ny":28,"refTime":"2025-06-10T03:00:00:Z","depth":"0","parameterNumber":3,"parameterNumberName":"V-component_of_CURRENTS"},"data":[0,0,0,0,0,0,0,0,0,0,0,0,0,0,0,0,0,0,0,0,0,0,0,0,0,0,0,0,0,0,0,0,0,0,0,0,0,0,0,0,0,0,0,0,0,0,0,0,0,0,0,0,0,0,0,0,0,0,-0.0342,-0.0341,0,-0.0272,-0.0271,-0.0271,-0.018,-0.0178,-0.0177,-0.0175,-0.0046,-0.0044,-0.0043,0,0,0,0,0,0,0,0,0,0,0,0,0,-0.0361,-0.0362,-0.0342,-0.0341,-0.034,-0.0272,-0.0271,-0.0271,-0.018,-0.0178,-0.0176,-0.0175,-0.0047,-0.0045,-0.0042,0,0,0,0,0,0,0,0,0,0,0,0,0,-0.033,-0.0362,-0.0343,-0.0286,-0.028,-0.0272,-0.0271,-0.027,-0.0181,-0.0178,-0.0176,-0.0174,-0.0048,-0.0045,-0.0042,-0.0073,0,0,-0.0033,-0.0032,0,0,0,0,0,0,0,0,-0.0332,-0.033,-0.0295,-0.029,-0.0283,-0.0231,-0.0231,-0.0201,-0.0181,-0.022,-0.0175,-0.0172,-0.0103,-0.0096,-0.0091,-0.0067,-0.0061,-0.0033,-0.0031,-0.003,-0.0029,0,0,0,0,0,0,0,-0.0334,-0.0332,-0.0316,-0.0294,-0.0287,-0.0251,-0.0245,-0.0225,-0.0176,-0.0217,-0.0209,-0.02,-0.01,-0.0094,-0.0087,-0.0059,-0.0033,-0.0031,-0.0029,-0.0028,0.0053,0.0053,0,0,0,0,0,0,-0.0345,-0.0335,-0.0318,-0.0314,-0.03,-0.0253,-0.0245,-0.0251,-0.0178,-0.0164,-0.0202,-0.0196,-0.01,-0.0091,-0.0082,-0.0048,-0.003,-0.0027,-0.0026,0.0052,0.0053,0.0053,0,0,0,0,0,0,-0.0346,-0.0345,-0.0321,-0.032,-0.0314,-0.0255,-0.0262,-0.0251,-0.0236,-0.0167,-0.0152,-0.0196,-0.0098,-0.0086,-0.0066,-0.0045,-0.0026,-0.0023,0.0052,0.0052,0.0053,-0.0023,0,0,0,0,0,0,-0.0347,-0.0346,-0.0357,-0.0322,-0.0315,-0.0317,-0.0264,-0.0252,-0.0234,-0.0225,-0.0158,-0.0144,-0.0095,-0.0071,-0.0064,-0.0041,-0.0021,0.0051,0.0052,0.0053,-0.0021,-0.0025,-0.0028,0,0,0,0,0,-0.0348,-0.0382,-0.0358,-0.0356,-0.0331,-0.0318,-0.0312,-0.0261,-0.0236,-0.0238,-0.0196,-0.0145,-0.0058,-0.0071,-0.0061,-0.0036,0.0051,0.0052,0.0053,-0.0019,-0.0024,-0.0028,0,0,0,0,0,0,-0.0404,-0.0374,-0.0348,-0.0372,-0.0342,-0.0301,-0.0305,-0.0273,-0.0244,-0.0237,-0.0168,-0.0152,-0.011,-0.0077,-0.0091,-0.0007,0.0015,0.0018,-0.0042,-0.0046,-0.005,-0.0084,-0.0019,0,0,0,0,0,-0.0421,-0.043,-0.0392,-0.0409,-0.0401,-0.0355,-0.0344,-0.0313,-0.0281,-0.0266,-0.0216,-0.016,-0.0104,-0.0082,-0.0032,-0.0019,0.0028,0.0014,0.001,0.0007,-0.0013,0.0066,0.0067,0.0056,0.0056,0.0056,0,0,-0.0445,-0.0431,-0.0434,-0.0419,-0.0396,-0.0402,-0.0343,-0.0338,-0.0332,-0.0259,-0.0243,-0.0177,-0.0102,-0.0064,-0.0042,-0.0035,0.0038,0.0008,0.0004,-0.0014,0.0067,0.0068,0.0069,0.0057,0.0056,0.0056,0,0,-0.0507,-0.0489,-0.0516,-0.05,-0.0473,-0.0443,-0.0445,-0.0406,-0.0375,-0.0361,-0.0283,-0.0222,-0.0163,-0.0094,-0.0053,-0.0057,0.0019,-0.0021,-0.0077,0.0,0.0001,0.0003,0.007,0.0079,-0.0029,-0.0029,-0.0029,0,-0.0537,-0.0567,-0.0522,-0.0544,-0.0542,-0.0468,-0.05,-0.0462,-0.0417,-0.0393,-0.0363,-0.0236,-0.0174,-0.0103,-0.0096,-0.0064,-0.0016,-0.0069,-0.0006,-0.0004,-0.0001,0.0068,0.0078,-0.0033,-0.0032,-0.0032,-0.0031,0,-0.0612,-0.0634,-0.0653,-0.065,-0.0642,-0.0658,-0.0602,-0.0577,-0.0529,-0.0478,-0.04,-0.0311,-0.0233,-0.0184,-0.0149,-0.0082,-0.0051,-0.0017,-0.0002,-0.0005,0.0069,0.008,-0.0038,-0.0036,-0.0035,-0.0034,0,0,-0.0682,-0.0704,-0.0707,-0.0732,-0.0703,-0.071,-0.069,-0.0651,-0.0623,-0.0549,-0.0491,-0.0397,-0.0328,-0.0279,-0.0194,-0.0131,-0.0062,-0.0082,-0.0076,-0.0029,0.0102,0.015,0.0169,-0.0017,-0.0016,-0.0015,0.0147,0,-0.0753,-0.0834,-0.0812,-0.0873,-0.0911,-0.0841,-0.0821,-0.0767,-0.0694,-0.0611,-0.0486,-0.0394,-0.0366,-0.0302,-0.0246,-0.0079,-0.0036,-0.011,0.0109,0.0115,0.0148,0.0182,0.0331,0.049,0.0159,0.0161,0.0162,0,-0.0829,-0.0876,-0.0964,-0.0987,-0.0992,-0.1005,-0.0958,-0.0935,-0.0791,-0.0717,-0.0614,-0.0485,-0.0354,-0.0322,-0.0119,-0.0166,-0.0069,0.0041,0.0051,0.0124,0.0185,0.0441,0.0524,0.0545,0.0181,0.0179,0.0178,0,-0.0911,-0.0976,-0.1056,-0.1068,-0.1076,-0.1086,-0.1074,-0.0974,-0.0906,-0.077,-0.0643,-0.0525,-0.0351,-0.0264,-0.0049,-0.0079,0.0192,0.0191,0.0312,0.0318,0.05,0.0519,0.0618,0.0292,0.0291,0.0291,0.029,0,-0.0999,-0.1058,-0.1106,-0.1151,-0.1214,-0.1184,-0.1183,-0.1135,-0.0979,-0.0815,-0.0703,-0.0481,-0.0319,-0.0117,-0.0038,0.0193,0.0197,0.0306,0.0366,0.0479,0.0493,0.0563,0.055,0.0297,0.0296,0.0294,0.0293,0,-0.1073,-0.1105,-0.1203,-0.1249,-0.1263,-0.1311,-0.1246,-0.1187,-0.1047,-0.0807,-0.0728,-0.0402,-0.0109,0.0024,0.0265,0.0293,0.052,0.0507,0.062,0.0687,0.0773,0.075,0.0922,0.1017,0.0654,0.0656,0.0658,0,-0.1107,-0.1174,-0.1285,-0.1319,-0.1346,-0.1382,-0.1347,-0.1249,-0.1108,-0.0695,-0.0516,-0.0168,0.0194,0.0507,0.0582,0.07,0.0714,0.086,0.0807,0.0799,0.0819,0.0789,0.0854,0.1036,0.104,0.1044,0.1048,0,-0.1157,-0.1208,-0.1284,-0.1364,-0.1381,-0.1369,-0.1283,-0.1162,-0.09,-0.0632,-0.0121,0.0201,0.0581,0.0885,0.0968,0.1013,0.0934,0.0941,0.094,0.1119,0.1094,0.1211,0.0881,0.1082,0.1079,0.1076,0.1075,0.1073,-0.1137,-0.1219,-0.1289,-0.1351,-0.1362,-0.1236,-0.1106,-0.0915,-0.0617,-0.0047,0.0187,0.0766,0.1083,0.1286,0.1257,0.1267,0.1226,0.1332,0.1308,0.1276,0.1357,0.107,0.132,0.1318,0.1316,0.1315,0.1313,0,-0.0997,-0.1115,-0.1226,-0.1228,-0.1141,-0.1174,-0.0934,-0.0683,-0.0231,0.0196,0.0691,0.1335,0.1587,0.1671,0.1671,0.1642,0.1608,0.1656,0.1664,0.1716,0.1504,0.1505,0.1799,0.1799,0.1799,0.1798,0.1798,0.1798,-0.0902,-0.0964,-0.1059,-0.0936,-0.0912,-0.0635,-0.0431,-0.0111,0.0226,0.0917,0.1413,0.1785,0.1976,0.1895,0.1861,0.1872,0.1876,0.1919,0.1873,0.1708,0.1675,0.1643,0.1639,0.1957,0.1957,0.2173,0.2175,0.2176]}],[{"header":{"parameterUnit":"m.s-1","parameterCategory":2,"la1":30.2991,"la2":30.254,"lo1":-89.0895,"lo2":-89.0444,"dy":0.0017,"dx":0.0017,"nx":28,"ny":28,"refTime":"2025-06-10T03:00:00:Z","depth":"2","parameterNumber":2,"parameterNumberName":"U-component_of_CURRENTS"},"data":[0,0,0,0,0,0,0,0,0,0,0,0,0,0,0,0,0,0,0,0,0,0,0,0,0,0,0,0,0,0,0,0,0,0,0,0,0,0,0,0,0,0,0,0,0,0,0,0,0,0,0,0,0,0,0,0,0,0,-0.2104,-0.2105,0,-0.2128,-0.2128,-0.2128,-0.2161,-0.2161,-0.2162,-0.2163,-0.2343,-0.2347,-0.2351,0,0,0,0,0,0,0,0,0,0,0,0,0,-0.2067,-0.2068,-0.2104,-0.2105,-0.2105,-0.2128,-0.2128,-0.2128,-0.2161,-0.2161,-0.2162,-0.2163,-0.2342,-0.2346,-0.2351,0,0,0,0,0,0,0,0,0,0,0,0,0,-0.2084,-0.2068,-0.2104,-0.2126,-0.2128,-0.2128,-0.2128,-0.2128,-0.216,-0.2161,-0.2163,-0.2164,-0.234,-0.2346,-0.2352,-0.2367,0,0,-0.2371,-0.2374,0,0,0,0,0,0,0,0,-0.2083,-0.2085,-0.2122,-0.2124,-0.2127,-0.2144,-0.2181,-0.2217,-0.216,-0.2146,-0.2163,-0.2164,-0.2292,-0.2302,-0.2298,-0.2376,-0.2384,-0.2371,-0.2375,-0.2378,-0.2379,0,0,0,0,0,0,0,-0.2082,-0.2084,-0.2111,-0.2122,-0.2125,-0.2128,-0.2131,-0.2187,-0.2213,-0.2147,-0.215,-0.2156,-0.2294,-0.2292,-0.2303,-0.2386,-0.2371,-0.2377,-0.238,-0.2383,-0.2405,-0.2402,0,0,0,0,0,0,-0.2083,-0.2083,-0.2111,-0.2112,-0.211,-0.2128,-0.2131,-0.2136,-0.2209,-0.2221,-0.2155,-0.2157,-0.2281,-0.2296,-0.231,-0.233,-0.2378,-0.2383,-0.2387,-0.2408,-0.2405,-0.2401,0,0,0,0,0,0,-0.2082,-0.2085,-0.211,-0.21,-0.2104,-0.2127,-0.2132,-0.2136,-0.2165,-0.2214,-0.2228,-0.2184,-0.2283,-0.2302,-0.2345,-0.2338,-0.2386,-0.2392,-0.2412,-0.2407,-0.2403,-0.2374,0,0,0,0,0,0,-0.2081,-0.2085,-0.2086,-0.21,-0.2104,-0.2121,-0.2131,-0.2135,-0.2166,-0.2171,-0.2244,-0.2259,-0.2285,-0.2335,-0.2351,-0.2348,-0.2397,-0.2416,-0.241,-0.2405,-0.2379,-0.2369,-0.236,0,0,0,0,0,-0.208,-0.2067,-0.2086,-0.209,-0.2106,-0.2122,-0.2124,-0.2143,-0.2167,-0.2175,-0.2203,-0.2259,-0.2308,-0.2339,-0.2358,-0.2356,-0.2419,-0.2412,-0.2405,-0.2383,-0.2371,-0.236,0,0,0,0,0,0,-0.2044,-0.207,-0.2091,-0.2087,-0.2114,-0.2128,-0.2126,-0.216,-0.2186,-0.2192,-0.2249,-0.2265,-0.2287,-0.2315,-0.2348,-0.2331,-0.2362,-0.2359,-0.2338,-0.2328,-0.2318,-0.2337,-0.2402,0,0,0,0,0,-0.204,-0.2047,-0.2076,-0.2077,-0.2084,-0.2117,-0.2127,-0.2149,-0.2174,-0.2188,-0.223,-0.2253,-0.2265,-0.2296,-0.2306,-0.2334,-0.2339,-0.2327,-0.2318,-0.2311,-0.2329,-0.2319,-0.2312,-0.2379,-0.2379,-0.2379,0,0,-0.2028,-0.2044,-0.2048,-0.2072,-0.2085,-0.2099,-0.2125,-0.2141,-0.216,-0.2206,-0.223,-0.2237,-0.2259,-0.2257,-0.227,-0.2295,-0.2279,-0.2302,-0.2296,-0.2319,-0.2311,-0.2306,-0.2301,-0.2374,-0.2375,-0.2376,0,0,-0.2006,-0.2019,-0.2021,-0.2043,-0.2073,-0.2089,-0.2106,-0.2132,-0.2147,-0.2173,-0.2182,-0.2185,-0.2228,-0.2222,-0.2232,-0.2184,-0.2225,-0.2176,-0.2172,-0.2161,-0.2157,-0.2154,-0.2106,-0.2099,-0.2182,-0.2182,-0.2182,0,-0.1997,-0.2004,-0.2024,-0.2035,-0.2053,-0.2092,-0.2107,-0.212,-0.2159,-0.2169,-0.2176,-0.2183,-0.2206,-0.2205,-0.2168,-0.2172,-0.216,-0.2226,-0.2155,-0.2153,-0.215,-0.2102,-0.2095,-0.2179,-0.218,-0.218,-0.218,0,-0.1979,-0.1996,-0.1993,-0.2026,-0.2045,-0.2059,-0.2089,-0.2106,-0.213,-0.2146,-0.2148,-0.2146,-0.2158,-0.214,-0.2152,-0.2131,-0.2122,-0.2143,-0.2201,-0.2143,-0.2093,-0.2087,-0.2176,-0.2177,-0.2178,-0.2178,0,0,-0.1933,-0.1977,-0.1978,-0.2004,-0.2045,-0.206,-0.208,-0.2109,-0.213,-0.2133,-0.2149,-0.2128,-0.213,-0.2135,-0.2132,-0.2121,-0.2068,-0.2128,-0.2128,-0.2109,-0.2017,-0.1904,-0.1886,-0.2089,-0.2088,-0.2088,-0.1974,0,-0.1921,-0.1944,-0.1969,-0.2,-0.2015,-0.2058,-0.2079,-0.211,-0.2129,-0.2143,-0.2134,-0.2137,-0.2128,-0.2127,-0.2112,-0.2091,-0.2056,-0.2096,-0.2051,-0.2049,-0.1982,-0.1878,-0.177,-0.1651,-0.1968,-0.1967,-0.1966,0,-0.1893,-0.1918,-0.1942,-0.2003,-0.2013,-0.2034,-0.208,-0.2106,-0.2133,-0.2147,-0.2148,-0.215,-0.2126,-0.2125,-0.2065,-0.2094,-0.205,-0.2024,-0.202,-0.1934,-0.1925,-0.1764,-0.1628,-0.1955,-0.1956,-0.1957,-0.1958,0,-0.1848,-0.1898,-0.192,-0.1939,-0.2005,-0.2023,-0.2057,-0.2098,-0.2117,-0.2146,-0.2151,-0.2142,-0.2124,-0.209,-0.2022,-0.2052,-0.1943,-0.198,-0.1827,-0.1818,-0.1727,-0.171,-0.1925,-0.1925,-0.1926,-0.1926,-0.1926,0,-0.1821,-0.1837,-0.1901,-0.1912,-0.1938,-0.1999,-0.2024,-0.2062,-0.2103,-0.2106,-0.2143,-0.2131,-0.2117,-0.2057,-0.2011,-0.1872,-0.1926,-0.1801,-0.1778,-0.1702,-0.1685,-0.197,-0.1977,-0.1922,-0.1922,-0.1923,-0.1924,0,-0.1758,-0.1805,-0.1827,-0.1894,-0.1914,-0.1928,-0.1993,-0.2003,-0.2065,-0.2068,-0.2074,-0.2102,-0.2023,-0.1968,-0.1891,-0.1828,-0.1732,-0.1669,-0.1554,-0.1518,-0.1619,-0.1625,-0.1497,-0.1492,-0.1488,-0.1484,-0.1481,0,-0.1727,-0.1733,-0.1789,-0.1795,-0.182,-0.1857,-0.1871,-0.1958,-0.1967,-0.2033,-0.2013,-0.1978,-0.1928,-0.1763,-0.163,-0.1484,-0.1581,-0.131,-0.1347,-0.1583,-0.1574,-0.1587,-0.1598,-0.1196,-0.1191,-0.1187,-0.1184,0,-0.1657,-0.1674,-0.1688,-0.1697,-0.1711,-0.1728,-0.1761,-0.1768,-0.1853,-0.1871,-0.1877,-0.1863,-0.1725,-0.1547,-0.1357,-0.1256,-0.133,-0.1218,-0.1488,-0.1322,-0.129,-0.1285,-0.1308,-0.1147,-0.1151,-0.1153,-0.1155,-0.1157,-0.1587,-0.1571,-0.1581,-0.1575,-0.1585,-0.1565,-0.1529,-0.158,-0.1582,-0.1569,-0.1668,-0.1585,-0.1579,-0.1215,-0.1089,-0.0929,-0.1039,-0.1001,-0.1018,-0.1039,-0.1024,-0.0987,-0.0782,-0.0784,-0.0785,-0.0786,-0.0787,0,-0.1492,-0.1475,-0.1458,-0.1429,-0.1369,-0.1427,-0.1416,-0.1358,-0.131,-0.134,-0.1335,-0.117,-0.1054,-0.0998,-0.0724,-0.0659,-0.0671,-0.0601,-0.0681,-0.0716,-0.0748,-0.0725,-0.04,-0.0399,-0.0398,-0.0397,0,0,-0.1439,-0.138,-0.1359,-0.1215,-0.1183,-0.1064,-0.1024,-0.0987,-0.0974,-0.0911,-0.0867,-0.096,-0.0994,-0.0736,-0.0662,-0.0509,-0.0596,-0.043,-0.0742,-0.0874,-0.0905,-0.0974,-0.0975,0,0,0,0,0]},{"header":{"parameterUnit":"m.s-1","parameterCategory":2,"la1":30.2991,"la2":30.254,"lo1":-89.0895,"lo2":-89.0444,"dy":0.0017,"dx":0.0017,"nx":28,"ny":28,"refTime":"2025-06-10T03:00:00:Z","depth":"2","parameterNumber":3,"parameterNumberName":"V-component_of_CURRENTS"},"data":[0,0,0,0,0,0,0,0,0,0,0,0,0,0,0,0,0,0,0,0,0,0,0,0,0,0,0,0,0,0,0,0,0,0,0,0,0,0,0,0,0,0,0,0,0,0,0,0,0,0,0,0,0,0,0,0,0,0,-0.0578,-0.0577,0,-0.0498,-0.0497,-0.0497,-0.0457,-0.0457,-0.0456,-0.0456,-0.0251,-0.0246,-0.024,0,0,0,0,0,0,0,0,0,0,0,0,0,-0.0652,-0.0651,-0.0578,-0.0577,-0.0576,-0.0498,-0.0497,-0.0496,-0.0457,-0.0457,-0.0456,-0.0456,-0.0253,-0.0246,-0.024,0,0,0,0,0,0,0,0,0,0,0,0,0,-0.0602,-0.0651,-0.0578,-0.0546,-0.0542,-0.0499,-0.0497,-0.0496,-0.0457,-0.0457,-0.0456,-0.0456,-0.0255,-0.0247,-0.0239,-0.0193,0,0,-0.0214,-0.0211,0,0,0,0,0,0,0,0,-0.0605,-0.0599,-0.0552,-0.0548,-0.0544,-0.0486,-0.0448,-0.0388,-0.0457,-0.049,-0.0456,-0.0456,-0.0317,-0.0304,-0.0293,-0.0183,-0.0175,-0.0214,-0.0209,-0.0205,-0.0203,0,0,0,0,0,0,0,-0.0608,-0.0602,-0.0548,-0.0551,-0.0546,-0.052,-0.0513,-0.0437,-0.0404,-0.0487,-0.0484,-0.0473,-0.0314,-0.0301,-0.0287,-0.0172,-0.0214,-0.0207,-0.0202,-0.0199,-0.0041,-0.0041,0,0,0,0,0,0,-0.0618,-0.0606,-0.055,-0.0545,-0.0573,-0.0519,-0.0511,-0.0506,-0.0408,-0.0393,-0.0474,-0.0472,-0.0315,-0.0297,-0.028,-0.0214,-0.0206,-0.0198,-0.0193,-0.004,-0.0041,-0.0042,0,0,0,0,0,0,-0.062,-0.0614,-0.0553,-0.0572,-0.0563,-0.0518,-0.0512,-0.0504,-0.049,-0.0399,-0.0382,-0.0467,-0.0314,-0.0291,-0.0237,-0.0206,-0.0194,-0.0187,-0.0039,-0.004,-0.0041,-0.0085,0,0,0,0,0,0,-0.0623,-0.0616,-0.062,-0.0573,-0.0562,-0.0529,-0.0512,-0.0503,-0.0483,-0.048,-0.0386,-0.0368,-0.0312,-0.0249,-0.0229,-0.0195,-0.0181,-0.0039,-0.004,-0.0041,-0.0083,-0.0087,-0.0091,0,0,0,0,0,-0.0626,-0.0626,-0.0621,-0.0614,-0.0568,-0.0528,-0.0521,-0.0489,-0.0483,-0.0476,-0.0433,-0.0371,-0.0242,-0.0244,-0.0219,-0.0182,-0.0038,-0.004,-0.0041,-0.0081,-0.0087,-0.0091,0,0,0,0,0,0,-0.0658,-0.0621,-0.0614,-0.0603,-0.0572,-0.0521,-0.0511,-0.0492,-0.0455,-0.0452,-0.0376,-0.0355,-0.0293,-0.0245,-0.0249,-0.0146,-0.0129,-0.0126,-0.0168,-0.0172,-0.0176,-0.0177,-0.0174,0,0,0,0,0,-0.067,-0.0662,-0.062,-0.0614,-0.0599,-0.0559,-0.0541,-0.0519,-0.0477,-0.0462,-0.04,-0.0339,-0.0279,-0.0236,-0.0177,-0.0115,-0.0073,-0.008,-0.0084,-0.0088,-0.0076,-0.0018,-0.0015,-0.0046,-0.0046,-0.0046,0,0,-0.068,-0.0659,-0.0655,-0.0621,-0.0594,-0.0571,-0.0548,-0.0521,-0.0498,-0.0441,-0.0394,-0.0346,-0.0271,-0.0211,-0.0178,-0.0164,-0.0061,-0.0089,-0.0093,-0.0078,-0.0019,-0.0015,-0.0012,-0.0047,-0.0047,-0.0047,0,0,-0.069,-0.0679,-0.0673,-0.065,-0.0613,-0.0584,-0.0579,-0.053,-0.0505,-0.0462,-0.0419,-0.0365,-0.0272,-0.0213,-0.0171,-0.0161,-0.009,-0.0143,-0.0147,-0.0092,-0.0088,-0.0084,-0.004,-0.0032,-0.0139,-0.0139,-0.0139,0,-0.0708,-0.0695,-0.0665,-0.0651,-0.0634,-0.0593,-0.0579,-0.0544,-0.0485,-0.0459,-0.0453,-0.0333,-0.0267,-0.0186,-0.0189,-0.0163,-0.0134,-0.0131,-0.0095,-0.009,-0.0086,-0.0041,-0.0032,-0.0141,-0.0141,-0.0141,-0.014,0,-0.0706,-0.07,-0.0693,-0.0664,-0.0641,-0.0623,-0.0573,-0.0545,-0.0515,-0.0473,-0.0402,-0.0334,-0.026,-0.0231,-0.02,-0.0131,-0.0124,-0.0112,-0.0079,-0.0085,-0.0038,-0.0028,-0.0144,-0.0144,-0.0143,-0.0142,0,0,-0.0733,-0.0702,-0.0699,-0.0697,-0.065,-0.0632,-0.0591,-0.0538,-0.051,-0.0449,-0.0404,-0.0309,-0.0277,-0.023,-0.0181,-0.0128,-0.0072,-0.0111,-0.0107,-0.0062,0.004,0.0048,0.0061,-0.0059,-0.0058,-0.0056,0.0054,0,-0.0743,-0.0738,-0.0708,-0.0698,-0.0692,-0.0644,-0.0611,-0.0557,-0.0505,-0.045,-0.0368,-0.0309,-0.0273,-0.0245,-0.0184,-0.0099,-0.0044,-0.0103,0.0034,0.0039,0.0053,0.0075,0.0053,0.015,0.0065,0.0067,0.0068,0,-0.0746,-0.0747,-0.0747,-0.0726,-0.0717,-0.0703,-0.065,-0.0613,-0.052,-0.0478,-0.0402,-0.034,-0.0242,-0.0227,-0.0071,-0.0115,-0.004,0.0022,0.0028,0.0065,0.0069,0.0144,0.0173,0.0087,0.0086,0.0084,0.0083,0,-0.0785,-0.077,-0.078,-0.0773,-0.0738,-0.0728,-0.0705,-0.0626,-0.0592,-0.0498,-0.0464,-0.0344,-0.0281,-0.0174,-0.004,-0.0056,0.0123,0.0119,0.0202,0.0202,0.0229,0.0229,0.023,0.023,0.023,0.023,0.0229,0,-0.0807,-0.0812,-0.0807,-0.0814,-0.0824,-0.0779,-0.0763,-0.0716,-0.0641,-0.0598,-0.0491,-0.043,-0.0266,-0.0144,-0.0038,0.0122,0.0131,0.0216,0.024,0.021,0.0207,0.0188,0.0182,0.0234,0.0233,0.0232,0.0231,0,-0.084,-0.0835,-0.0853,-0.0844,-0.0846,-0.0855,-0.0823,-0.0802,-0.0726,-0.0668,-0.0643,-0.0478,-0.0311,-0.0147,0.0049,0.013,0.0273,0.0325,0.0273,0.0289,0.0311,0.0301,0.0428,0.0429,0.043,0.0431,0.0432,0,-0.0854,-0.087,-0.0894,-0.0916,-0.0918,-0.0924,-0.0923,-0.0858,-0.0827,-0.0697,-0.067,-0.0492,-0.0351,-0.0057,0.0131,0.0334,0.0331,0.041,0.0383,0.0325,0.0336,0.0324,0.0312,0.0397,0.0398,0.0398,0.0399,0,-0.0885,-0.0899,-0.0922,-0.0976,-0.0999,-0.1007,-0.0998,-0.0986,-0.0896,-0.0826,-0.0693,-0.0571,-0.0273,-0.0031,0.0229,0.0336,0.0373,0.0424,0.0407,0.034,0.0303,0.0311,0.03,0.0402,0.0402,0.0402,0.0401,0.0401,-0.0912,-0.0947,-0.0987,-0.1035,-0.1061,-0.1075,-0.1077,-0.1041,-0.0985,-0.0846,-0.0735,-0.0505,-0.0294,0.0113,0.0275,0.0444,0.0439,0.0467,0.0463,0.046,0.0426,0.0393,0.0502,0.0502,0.0502,0.0502,0.0502,0,-0.0954,-0.0991,-0.1039,-0.1095,-0.113,-0.1127,-0.111,-0.1079,-0.1015,-0.0831,-0.0686,-0.042,-0.0147,0.0104,0.0373,0.0493,0.0479,0.051,0.0463,0.0459,0.0456,0.0419,0.0495,0.0495,0.0496,0.0496,0,0,-0.0981,-0.1042,-0.107,-0.1144,-0.1175,-0.1194,-0.1182,-0.1108,-0.0964,-0.0772,-0.0565,-0.0366,-0.0078,0.0089,0.0245,0.0397,0.0394,0.0407,0.04,0.0322,0.0317,0.0419,0.0357,0,0,0,0,0]}],[{"header":{"parameterUnit":"m.s-1","parameterCategory":2,"la1":30.2991,"la2":30.254,"lo1":-89.0895,"lo2":-89.0444,"dy":0.0017,"dx":0.0017,"nx":28,"ny":28,"refTime":"2025-06-10T03:00:00:Z","depth":"4","parameterNumber":2,"parameterNumberName":"U-component_of_CURRENTS"},"data":[0,0,0,0,0,0,0,0,0,0,0,0,0,0,0,0,0,0,0,0,0,0,0,0,0,0,0,0,0,0,0,0,0,0,0,0,0,0,0,0,0,0,0,0,0,0,0,0,0,0,0,0,0,0,0,0,0,0,-0.1426,-0.1426,0,-0.1456,-0.1457,-0.1457,-0.1495,-0.1495,-0.1496,-0.1497,-0.1564,-0.1565,-0.1566,0,0,0,0,0,0,0,0,0,0,0,0,0,-0.1367,-0.1368,-0.1426,-0.1426,-0.1427,-0.1456,-0.1457,-0.1457,-0.1494,-0.1495,-0.1496,-0.1497,-0.1563,-0.1565,-0.1566,0,0,0,0,0,0,0,0,0,0,0,0,0,-0.1393,-0.1368,-0.1426,-0.1451,-0.1454,-0.1456,-0.1457,-0.1457,-0.1494,-0.1495,-0.1497,-0.1498,-0.1563,-0.1565,-0.1566,-0.1552,0,0,-0.1571,-0.1572,0,0,0,0,0,0,0,0,-0.1391,-0.1394,-0.1447,-0.1449,-0.1452,-0.1475,-0.1461,-0.1491,-0.1494,-0.1477,-0.1497,-0.1498,-0.1538,-0.1542,-0.1541,-0.1555,-0.1558,-0.1571,-0.1572,-0.1573,-0.1573,0,0,0,0,0,0,0,-0.1389,-0.1393,-0.1436,-0.1447,-0.1451,-0.145,-0.1455,-0.1466,-0.1499,-0.1478,-0.1482,-0.1488,-0.154,-0.1539,-0.1543,-0.1559,-0.1571,-0.1572,-0.1573,-0.1574,-0.1602,-0.1601,0,0,0,0,0,0,-0.1391,-0.1392,-0.1435,-0.1437,-0.1427,-0.145,-0.1455,-0.1465,-0.1498,-0.1505,-0.1487,-0.149,-0.1536,-0.1541,-0.1546,-0.1605,-0.1573,-0.1574,-0.1575,-0.1602,-0.1602,-0.1601,0,0,0,0,0,0,-0.1389,-0.1394,-0.1434,-0.1416,-0.1422,-0.145,-0.146,-0.1465,-0.1495,-0.1505,-0.1512,-0.1516,-0.1537,-0.1544,-0.1571,-0.1606,-0.1575,-0.1576,-0.1602,-0.1602,-0.1601,-0.1677,0,0,0,0,0,0,-0.1387,-0.1393,-0.1412,-0.1417,-0.1423,-0.1458,-0.1459,-0.1464,-0.1496,-0.15,-0.1531,-0.1537,-0.1539,-0.1568,-0.1572,-0.1607,-0.1577,-0.1602,-0.1602,-0.1602,-0.1675,-0.1679,-0.1683,0,0,0,0,0,-0.1385,-0.14,-0.1412,-0.1418,-0.1443,-0.146,-0.1463,-0.1485,-0.1496,-0.1515,-0.1527,-0.1538,-0.1569,-0.157,-0.1574,-0.1611,-0.1602,-0.1602,-0.1602,-0.1673,-0.1679,-0.1683,0,0,0,0,0,0,-0.1384,-0.1406,-0.1419,-0.1442,-0.1462,-0.1468,-0.1488,-0.1499,-0.1522,-0.1533,-0.154,-0.1547,-0.1583,-0.1574,-0.1575,-0.161,-0.1585,-0.1586,-0.1638,-0.1643,-0.1647,-0.1649,-0.1579,0,0,0,0,0,-0.1391,-0.1412,-0.143,-0.1452,-0.1465,-0.1481,-0.1495,-0.151,-0.1524,-0.1537,-0.1557,-0.1567,-0.1578,-0.1594,-0.16,-0.1624,-0.1597,-0.1644,-0.1648,-0.1652,-0.1653,-0.1643,-0.1647,-0.16,-0.16,-0.16,0,0,-0.1397,-0.1412,-0.1425,-0.1454,-0.1471,-0.1494,-0.1493,-0.1523,-0.1547,-0.154,-0.1586,-0.159,-0.1585,-0.1613,-0.1628,-0.1617,-0.1646,-0.1652,-0.1656,-0.1654,-0.1643,-0.1648,-0.1652,-0.16,-0.16,-0.16,0,0,-0.1406,-0.1434,-0.1453,-0.1474,-0.1508,-0.1519,-0.1535,-0.1559,-0.1582,-0.1613,-0.1612,-0.1635,-0.1654,-0.166,-0.1662,-0.1688,-0.1668,-0.1691,-0.1725,-0.1716,-0.172,-0.1724,-0.1679,-0.1678,-0.1695,-0.1695,-0.1695,0,-0.1415,-0.1441,-0.1461,-0.1486,-0.1509,-0.1535,-0.1561,-0.1583,-0.1615,-0.1631,-0.1639,-0.1664,-0.1675,-0.1697,-0.1709,-0.1704,-0.1678,-0.1715,-0.1724,-0.1727,-0.173,-0.1683,-0.1681,-0.1699,-0.1698,-0.1698,-0.1698,0,-0.1429,-0.1465,-0.148,-0.1521,-0.1548,-0.1577,-0.1609,-0.1643,-0.1672,-0.1686,-0.1724,-0.173,-0.1741,-0.1753,-0.1746,-0.177,-0.1737,-0.1734,-0.172,-0.174,-0.1688,-0.1684,-0.1704,-0.1703,-0.1702,-0.1701,0,0,-0.1409,-0.1478,-0.1487,-0.1518,-0.1573,-0.1593,-0.1642,-0.1683,-0.1713,-0.1747,-0.1776,-0.1804,-0.1807,-0.1806,-0.1805,-0.1807,-0.1807,-0.1785,-0.1783,-0.1754,-0.176,-0.1624,-0.1607,-0.1812,-0.1812,-0.1812,-0.1711,0,-0.1418,-0.1469,-0.1503,-0.1561,-0.1591,-0.1637,-0.1678,-0.172,-0.1753,-0.1788,-0.1803,-0.1827,-0.1827,-0.1838,-0.1843,-0.1816,-0.1804,-0.1833,-0.1732,-0.1728,-0.1617,-0.1601,-0.1813,-0.1708,-0.1708,-0.1707,-0.1706,0,-0.1414,-0.1453,-0.151,-0.1586,-0.1604,-0.1644,-0.1712,-0.1751,-0.18,-0.1825,-0.1852,-0.1857,-0.187,-0.1866,-0.183,-0.1848,-0.181,-0.1784,-0.178,-0.1625,-0.1586,-0.1685,-0.17,-0.17,-0.1701,-0.1701,-0.1702,0,-0.1376,-0.1457,-0.1505,-0.1532,-0.1617,-0.1656,-0.1702,-0.1762,-0.1791,-0.1845,-0.1859,-0.1877,-0.1874,-0.185,-0.1796,-0.1818,-0.1732,-0.1752,-0.1586,-0.1575,-0.1699,-0.1696,-0.1719,-0.1719,-0.1719,-0.1719,-0.172,0,-0.1358,-0.14,-0.1497,-0.1522,-0.1576,-0.1646,-0.1699,-0.1748,-0.1804,-0.1812,-0.187,-0.186,-0.1873,-0.1824,-0.1787,-0.165,-0.1717,-0.1574,-0.154,-0.1728,-0.173,-0.1695,-0.1693,-0.1716,-0.1716,-0.1717,-0.1718,0,-0.1302,-0.137,-0.1427,-0.1527,-0.1559,-0.1597,-0.1685,-0.1707,-0.1781,-0.1789,-0.1803,-0.1837,-0.1765,-0.1735,-0.1672,-0.1606,-0.1516,-0.1452,-0.1619,-0.1598,-0.1369,-0.1373,-0.1261,-0.1256,-0.1251,-0.1247,-0.1244,0,-0.1274,-0.1301,-0.141,-0.1437,-0.1485,-0.1552,-0.1582,-0.1676,-0.1687,-0.1745,-0.1722,-0.1699,-0.169,-0.1478,-0.1485,-0.1367,-0.1355,-0.13,-0.1373,-0.1344,-0.1323,-0.1334,-0.1343,-0.1236,-0.1235,-0.1233,-0.1232,0,-0.1214,-0.1266,-0.1308,-0.1358,-0.1402,-0.1438,-0.1488,-0.1484,-0.1561,-0.1649,-0.1583,-0.1532,-0.1438,-0.1376,-0.1275,-0.1211,-0.134,-0.1251,-0.1262,-0.1329,-0.1312,-0.1298,-0.1313,-0.1216,-0.1218,-0.122,-0.1221,0,-0.1164,-0.1173,-0.1228,-0.1253,-0.13,-0.1285,-0.1339,-0.1335,-0.1359,-0.1433,-0.1402,-0.1383,-0.1417,-0.129,-0.1208,-0.1116,-0.1112,-0.1089,-0.1109,-0.1127,-0.1129,-0.1091,-0.0878,0,0,0,0,0,-0.1107,-0.1095,-0.1113,-0.1123,-0.1157,-0.1175,-0.1246,-0.1299,-0.1377,-0.1284,-0.134,-0.125,-0.1142,-0.1149,-0.1018,-0.113,-0.1106,-0.0975,-0.109,-0.1124,-0.1143,-0.1157,0,0,0,0,0,0,-0.1064,-0.1084,-0.1072,-0.0993,-0.0968,-0.0982,-0.1018,-0.1081,-0.1046,-0.1139,-0.1084,-0.1159,-0.1068,-0.1169,-0.0983,-0.0977,-0.102,-0.0977,-0.0973,-0.1113,-0.113,-0.1146,-0.1167,0,0,0,0,0]},{"header":{"parameterUnit":"m.s-1","parameterCategory":2,"la1":30.2991,"la2":30.254,"lo1":-89.0895,"lo2":-89.0444,"dy":0.0017,"dx":0.0017,"nx":28,"ny":28,"refTime":"2025-06-10T03:00:00:Z","depth":"4","parameterNumber":3,"parameterNumberName":"V-component_of_CURRENTS"},"data":[0,0,0,0,0,0,0,0,0,0,0,0,0,0,0,0,0,0,0,0,0,0,0,0,0,0,0,0,0,0,0,0,0,0,0,0,0,0,0,0,0,0,0,0,0,0,0,0,0,0,0,0,0,0,0,0,0,0,-0.0426,-0.0426,0,-0.0389,-0.0388,-0.0388,-0.0379,-0.0379,-0.0379,-0.0379,-0.0314,-0.0312,-0.031,0,0,0,0,0,0,0,0,0,0,0,0,0,-0.0459,-0.0459,-0.0426,-0.0426,-0.0425,-0.0389,-0.0388,-0.0388,-0.0378,-0.0379,-0.0379,-0.0379,-0.0314,-0.0312,-0.031,0,0,0,0,0,0,0,0,0,0,0,0,0,-0.0436,-0.0459,-0.0426,-0.0415,-0.0414,-0.0389,-0.0388,-0.0388,-0.0378,-0.0379,-0.0379,-0.0379,-0.0315,-0.0312,-0.031,-0.0287,0,0,-0.0301,-0.03,0,0,0,0,0,0,0,0,-0.0438,-0.0435,-0.0417,-0.0416,-0.0414,-0.0388,-0.0376,-0.0353,-0.0378,-0.0393,-0.0379,-0.0379,-0.0335,-0.0331,-0.0325,-0.0284,-0.0281,-0.0301,-0.0299,-0.0298,-0.0297,0,0,0,0,0,0,0,-0.0439,-0.0437,-0.0412,-0.0417,-0.0415,-0.0402,-0.04,-0.0372,-0.0363,-0.0391,-0.039,-0.0385,-0.0334,-0.0327,-0.0323,-0.028,-0.0301,-0.0298,-0.0296,-0.0295,-0.022,-0.022,0,0,0,0,0,0,-0.0444,-0.0438,-0.0413,-0.0411,-0.0426,-0.0401,-0.0399,-0.0397,-0.0364,-0.0359,-0.0385,-0.0385,-0.0332,-0.0326,-0.0321,-0.0284,-0.0298,-0.0295,-0.0293,-0.022,-0.022,-0.0219,0,0,0,0,0,0,-0.0445,-0.0442,-0.0415,-0.0423,-0.0418,-0.0401,-0.0399,-0.0396,-0.0394,-0.0359,-0.0354,-0.0387,-0.0332,-0.0325,-0.0307,-0.0282,-0.0294,-0.0291,-0.022,-0.022,-0.022,-0.0216,0,0,0,0,0,0,-0.0446,-0.0443,-0.045,-0.0423,-0.0418,-0.0406,-0.0398,-0.0395,-0.039,-0.0389,-0.0359,-0.0353,-0.0332,-0.0311,-0.0304,-0.0278,-0.0289,-0.0221,-0.022,-0.022,-0.0216,-0.0215,-0.0214,0,0,0,0,0,-0.0447,-0.0453,-0.0451,-0.0448,-0.0427,-0.0406,-0.0402,-0.0391,-0.039,-0.039,-0.0374,-0.0354,-0.0302,-0.0309,-0.0301,-0.0273,-0.0221,-0.022,-0.022,-0.0216,-0.0215,-0.0214,0,0,0,0,0,0,-0.0471,-0.0451,-0.0449,-0.0449,-0.0432,-0.0404,-0.0404,-0.0394,-0.0382,-0.0384,-0.0355,-0.0347,-0.0319,-0.0304,-0.0312,-0.0251,-0.0256,-0.0253,-0.0256,-0.0255,-0.0254,-0.0251,-0.0287,0,0,0,0,0,-0.0479,-0.0481,-0.0456,-0.0458,-0.0451,-0.0429,-0.0422,-0.0413,-0.0394,-0.0389,-0.0368,-0.0341,-0.0308,-0.0291,-0.0266,-0.0235,-0.0213,-0.0211,-0.021,-0.021,-0.0203,-0.015,-0.0143,-0.0217,-0.0217,-0.0217,0,0,-0.0489,-0.0479,-0.048,-0.0464,-0.0451,-0.0437,-0.0426,-0.0416,-0.0401,-0.0383,-0.0363,-0.034,-0.0302,-0.0268,-0.0252,-0.0251,-0.018,-0.0209,-0.0208,-0.0202,-0.0149,-0.0141,-0.0135,-0.0217,-0.0217,-0.0217,0,0,-0.05,-0.0499,-0.0501,-0.0487,-0.047,-0.0452,-0.0451,-0.0426,-0.0412,-0.0393,-0.0368,-0.0332,-0.0298,-0.0253,-0.0227,-0.0205,-0.018,-0.0201,-0.0186,-0.0135,-0.0128,-0.0122,-0.0096,-0.0087,-0.0196,-0.0196,-0.0196,0,-0.0516,-0.0511,-0.0498,-0.0491,-0.0481,-0.0459,-0.0451,-0.0429,-0.0402,-0.0382,-0.039,-0.0314,-0.0282,-0.0213,-0.0206,-0.0197,-0.0182,-0.0192,-0.0132,-0.0126,-0.0119,-0.0094,-0.0084,-0.0196,-0.0196,-0.0196,-0.0196,0,-0.0519,-0.0519,-0.0518,-0.0502,-0.0489,-0.0481,-0.0446,-0.0431,-0.0415,-0.0386,-0.0333,-0.0291,-0.0243,-0.0221,-0.0205,-0.0136,-0.0146,-0.014,-0.0134,-0.0111,-0.0086,-0.0076,-0.0196,-0.0196,-0.0196,-0.0196,0,0,-0.054,-0.0526,-0.0526,-0.0525,-0.0496,-0.0486,-0.0454,-0.0413,-0.0391,-0.0353,-0.0315,-0.0241,-0.022,-0.019,-0.0156,-0.0105,-0.0046,-0.0108,-0.0106,-0.008,0.0045,0.0015,0.0023,-0.0035,-0.0033,-0.0031,0.004,0,-0.0548,-0.055,-0.0531,-0.0526,-0.0523,-0.049,-0.0463,-0.0422,-0.0386,-0.0346,-0.0275,-0.0234,-0.0206,-0.0189,-0.0127,-0.0072,-0.0018,-0.0067,0.0017,0.002,-0.0006,0.0035,-0.0025,0.0047,0.005,0.0051,0.0053,0,-0.0552,-0.0555,-0.056,-0.0543,-0.0537,-0.0531,-0.0489,-0.0461,-0.0386,-0.0356,-0.029,-0.0247,-0.0158,-0.0152,-0.0021,-0.006,-0.0005,0.004,0.0044,0.0025,0.001,0.0023,0.0071,0.0069,0.0068,0.0067,0.0066,0,-0.0576,-0.057,-0.0581,-0.0576,-0.0553,-0.0548,-0.0532,-0.047,-0.0446,-0.0369,-0.035,-0.0238,-0.0197,-0.0101,-0.0004,-0.0015,0.0125,0.0123,0.0155,0.0152,0.0154,0.0147,0.0224,0.0224,0.0224,0.0224,0.0223,0,-0.0585,-0.0594,-0.0602,-0.0609,-0.0621,-0.0587,-0.0581,-0.0543,-0.0488,-0.0459,-0.0368,-0.0326,-0.0184,-0.0091,-0.0002,0.0105,0.0133,0.0169,0.0179,0.0151,0.0143,0.0161,0.0152,0.0226,0.0226,0.0225,0.0225,0,-0.0604,-0.0608,-0.0629,-0.0631,-0.0638,-0.065,-0.0639,-0.0626,-0.0569,-0.0532,-0.0514,-0.0386,-0.0263,-0.0124,0.0035,0.0095,0.0205,0.0237,0.0188,0.0191,0.0195,0.0186,0.0279,0.0278,0.0278,0.0278,0.0278,0,-0.0609,-0.0625,-0.0665,-0.0693,-0.0703,-0.0719,-0.0728,-0.0679,-0.066,-0.0571,-0.0553,-0.0428,-0.0334,-0.0124,0.0016,0.0194,0.0215,0.026,0.0246,0.0206,0.0206,0.0197,0.0189,0.0278,0.0278,0.0278,0.0278,0,-0.0625,-0.0652,-0.0677,-0.0744,-0.0778,-0.0796,-0.0802,-0.0791,-0.0724,-0.0683,-0.0574,-0.0451,-0.0309,-0.0133,0.0009,0.0133,0.0224,0.0258,0.0259,0.0247,0.0205,0.0204,0.0196,0.0277,0.0277,0.0277,0.0277,0,-0.0648,-0.0682,-0.0734,-0.0786,-0.0835,-0.0856,-0.0849,-0.0812,-0.0778,-0.0667,-0.0637,-0.0467,-0.0356,-0.0165,-0.0037,0.0087,0.0112,0.0134,0.0142,0.0144,0.0082,0.0008,0.0041,0,0,0,0,0,-0.0668,-0.0715,-0.077,-0.0829,-0.0876,-0.0901,-0.0889,-0.0864,-0.0806,-0.0738,-0.0677,-0.054,-0.0326,-0.0224,-0.0103,-0.0058,0.0118,0.0083,0.0143,0.0273,0.0274,0.0222,0,0,0,0,0,0,-0.0689,-0.0749,-0.0777,-0.0851,-0.0898,-0.094,-0.0933,-0.0891,-0.0829,-0.0755,-0.0629,-0.0548,-0.033,-0.0403,-0.0117,-0.0077,-0.0031,0.0194,0.0196,0.0273,0.0274,0.0274,0.022,0,0,0,0,0]}]]